Location: Monrovia
(34.7865°N, 86.7139°W)
Time: 22:03:49
(UTC+00:00)

Cosmos 2173 Rocket - Pass Details

Date: 14 July 2020
Orbit: 944 x 1002 km, 83.0° (Epoch: 08 August)

Event Time Altitude Azimuth Distance (km) Brightness Sun altitude
Exits shadow 06:56:52 71° 69° (ENE) 1,049 4.1 -31.6°
Drops below altitude 10° 07:02:51 10° 11° (N) 2,755 7.2 -31.2°
Sets 07:05:22 0° 9° (N) 3,699 8.1 -31.0°
